Weather History for Teterboro, NJ

Change the Weather History Date:

Thursday, January 9, 2014

  Actual Average Record
Temperature  
Mean Temperature 28 °F -  
Max Temperature 34 °F 37 °F 64 °F (2008)
Min Temperature 21 °F 24 °F 5 °F (2004)
Degree Days  
Heating Degree Days 38    
Moisture  
Dew Point 9 °F    
Average Humidity 47    
Maximum Humidity 65    
Minimum Humidity 35    
Precipitation  
Precipitation 0.00 in - - ()
Sea Level Pressure  
Sea Level Pressure 30.60 in    
Wind  
Wind Speed 4 mph (WNW)    
Max Wind Speed 9 mph    
Max Gust Speed -    
Visibility 10 miles    
Events      
Averages and records for this station are not official NWS values.
T = Trace of Precipitation, MM = Missing Value Source: NWS Daily Summary

Daily Weather History Graph

Daily Weather History Graph

Search for Another Location

Airport:

Trip Planner

Search our weather history database for the weather conditions in past years. The results will help you decide how hot, cold, wet, or windy it might be!

Date:

Astronomy

Jan. 09, 2014 Rise Set
Actual Time 7:20 AM EST 4:46 PM EST
Civil Twilight 6:49 AM EST 5:17 PM EST
Nautical Twilight 6:15 AM EST 5:51 PM EST
Astronomical Twilight 5:42 AM EST 6:24 PM EST
Moon 12:12 PM EST (1/9) 1:24 AM EST (1/9)
Length of Visible Light 10h 27m
Length of Day
9h 26m
Waxing Gibbous, 66% of the Moon is Illuminated
Jan 9
Waxing Gibbous
Jan 15
Full
Jan 24
Last Quarter
Jan 30
New
Feb 6
First Quarter

Hourly Weather History & Observations

Time (EST) Temp. Windchill Dew Point Humidity Pressure Visibility Wind Dir Wind Speed Gust Speed Precip Events Conditions
12:51 AM 23.0 °F 15.8 °F 3.0 °F 42% 30.51 in 10.0 mi WSW 5.8 mph - N/A   Overcast
1:51 AM 24.1 °F 18.2 °F 3.0 °F 40% 30.51 in 10.0 mi WSW 4.6 mph - N/A   Mostly Cloudy
2:51 AM 24.1 °F 16.0 °F 3.9 °F 42% 30.53 in 10.0 mi WSW 6.9 mph - N/A   Clear
3:51 AM 24.1 °F 16.0 °F 6.1 °F 46% 30.53 in 10.0 mi West 6.9 mph - N/A   Clear
4:51 AM 24.1 °F 19.7 °F 9.0 °F 53% 30.54 in 10.0 mi WNW 3.5 mph - N/A   Clear
5:51 AM 23.0 °F - 10.0 °F 58% 30.57 in 10.0 mi Calm Calm - N/A   Clear
6:51 AM 21.0 °F - 10.9 °F 65% 30.59 in 10.0 mi Calm Calm - N/A   Clear
7:51 AM 23.0 °F - 10.9 °F 60% 30.62 in 10.0 mi Calm Calm - N/A   Clear
8:51 AM 25.0 °F 20.7 °F 10.9 °F 55% 30.64 in 10.0 mi Variable 3.5 mph - N/A   Clear
9:51 AM 27.0 °F 18.0 °F 9.0 °F 47% 30.66 in 10.0 mi NNW 9.2 mph - N/A   Clear
10:51 AM 28.9 °F 20.4 °F 9.0 °F 43% 30.66 in 10.0 mi North 9.2 mph - N/A   Clear
11:51 AM 30.9 °F 24.3 °F 9.0 °F 40% 30.63 in 10.0 mi NNW 6.9 mph - N/A   Clear
12:51 PM 33.1 °F 27.7 °F 8.1 °F 35% 30.60 in 10.0 mi NNE 5.8 mph - N/A   Clear
1:38 PM 33.8 °F 30.8 °F 8.6 °F 35% 30.60 in 10.0 mi Variable 3.5 mph - N/A   Smoke
1:51 PM 33.1 °F 28.7 °F 9.0 °F 37% 30.60 in 10.0 mi WNW 4.6 mph - N/A   Clear
2:51 PM 33.1 °F - 8.1 °F 35% 30.60 in 10.0 mi Calm Calm - N/A   Clear
3:51 PM 34.0 °F 28.8 °F 9.0 °F 35% 30.62 in 10.0 mi Variable 5.8 mph - N/A   Clear
4:51 PM 33.1 °F 28.7 °F 8.1 °F 35% 30.63 in 10.0 mi SE 4.6 mph - N/A   Clear
6:51 PM 30.0 °F - 10.9 °F 45% 30.64 in 10.0 mi Calm Calm - N/A   Clear
7:51 PM 28.9 °F - 12.0 °F 49% 30.63 in 10.0 mi Calm Calm - N/A   Clear
8:51 PM 27.0 °F - 12.9 °F 56% 30.61 in 10.0 mi Calm Calm - N/A   Clear
9:51 PM 28.0 °F - 14.0 °F 56% 30.62 in 10.0 mi Calm Calm - N/A   Clear
10:51 PM 28.0 °F - 14.0 °F 56% 30.61 in 10.0 mi Calm Calm - N/A   Scattered Clouds
11:51 PM 27.0 °F - 16.0 °F 63% 30.60 in 10.0 mi Calm Calm - N/A   Scattered Clouds